Time,TemperatureF,DewpointF,PressureIn,WindDirection,WindDirectionDegrees,WindSpeedMPH,WindSpeedGustMPH,Humidity,HourlyPrecipIn,Conditions,Clouds,dailyrainin,SoftwareType,DateUTC
2017-07-23 00:03:00,77.9,75.4,29.95,WSW,248,0.0,0.0,92,0.00,,,0.00,Wunderground v.1.15,2017-07-23 05:03:00,
2017-07-23 00:09:00,77.8,75.3,29.95,WSW,248,0.0,0.0,92,0.00,,,0.00,Wunderground v.1.15,2017-07-23 05:09:00,
2017-07-23 00:14:00,77.6,75.1,29.95,WSW,248,0.0,0.0,92,0.00,,,0.00,Wunderground v.1.15,2017-07-23 05:14:00,
2017-07-23 00:20:00,77.4,75.2,29.95,WSW,248,0.0,0.0,93,0.00,,,0.00,Wunderground v.1.15,2017-07-23 05:20:00,
2017-07-23 00:25:00,77.4,75.2,29.95,WSW,248,0.0,0.0,93,0.00,,,0.00,Wunderground v.1.15,2017-07-23 05:25:00,
2017-07-23 00:31:00,77.1,74.9,29.95,WSW,248,0.0,0.0,93,0.00,,,0.00,Wunderground v.1.15,2017-07-23 05:31:00,
2017-07-23 00:37:00,77.0,75.1,29.95,WSW,248,0.0,0.0,94,0.00,,,0.00,Wunderground v.1.15,2017-07-23 05:37:00,
2017-07-23 00:43:00,76.8,74.9,29.95,WSW,248,0.0,0.0,94,0.00,,,0.00,Wunderground v.1.15,2017-07-23 05:43:00,
2017-07-23 00:49:00,76.6,74.7,29.95,WSW,248,0.0,0.0,94,0.00,,,0.00,Wunderground v.1.15,2017-07-23 05:49:00,
2017-07-23 00:55:00,76.6,74.7,29.95,WSW,248,0.0,0.0,94,0.00,,,0.00,Wunderground v.1.15,2017-07-23 05:55:00,
2017-07-23 01:00:00,76.6,74.7,29.95,WSW,248,0.0,0.0,94,0.00,,,0.00,Wunderground v.1.15,2017-07-23 06:00:00,
2017-07-23 01:06:00,76.6,75.1,29.95,WSW,248,0.0,0.0,95,0.00,,,0.00,Wunderground v.1.15,2017-07-23 06:06:00,
2017-07-23 01:12:00,76.4,74.9,29.95,WSW,248,0.0,0.0,95,0.00,,,0.00,Wunderground v.1.15,2017-07-23 06:12:00,
2017-07-23 01:18:00,76.2,74.7,29.94,WSW,248,0.0,0.0,95,0.00,,,0.00,Wunderground v.1.15,2017-07-23 06:18:00,
2017-07-23 01:23:00,76.2,74.7,29.94,WSW,248,0.0,0.0,95,0.00,,,0.00,Wunderground v.1.15,2017-07-23 06:23:00,
2017-07-23 01:29:00,76.2,74.7,29.94,WSW,248,0.0,0.0,95,0.00,,,0.00,Wunderground v.1.15,2017-07-23 06:29:00,
2017-07-23 01:35:00,76.2,74.7,29.94,WSW,248,0.0,0.0,95,0.00,,,0.00,Wunderground v.1.15,2017-07-23 06:35:00,
2017-07-23 01:41:00,76.1,74.6,29.94,WSW,248,0.0,0.0,95,0.00,,,0.00,Wunderground v.1.15,2017-07-23 06:41:00,
2017-07-23 01:46:00,75.9,74.4,29.94,WSW,248,0.0,0.0,95,0.00,,,0.00,Wunderground v.1.15,2017-07-23 06:46:00,
2017-07-23 01:52:00,75.8,74.6,29.94,WSW,248,0.0,0.0,96,0.00,,,0.00,Wunderground v.1.15,2017-07-23 06:52:00,
2017-07-23 01:58:00,75.7,74.5,29.93,WSW,248,0.0,0.0,96,0.00,,,0.00,Wunderground v.1.15,2017-07-23 06:58:00,
2017-07-23 02:04:00,75.6,74.4,29.93,WSW,248,0.0,0.0,96,0.00,,,0.00,Wunderground v.1.15,2017-07-23 07:04:00,
2017-07-23 02:09:00,75.6,74.4,29.93,WSW,248,0.0,0.0,96,0.00,,,0.00,Wunderground v.1.15,2017-07-23 07:09:00,
2017-07-23 02:15:00,75.5,74.3,29.93,WSW,248,0.0,0.0,96,0.00,,,0.00,Wunderground v.1.15,2017-07-23 07:15:00,
2017-07-23 02:21:00,75.5,74.3,29.93,WSW,248,0.0,0.0,96,0.00,,,0.00,Wunderground v.1.15,2017-07-23 07:21:00,
2017-07-23 02:27:00,75.5,74.3,29.93,WSW,248,0.0,1.0,96,0.00,,,0.00,Wunderground v.1.15,2017-07-23 07:27:00,
2017-07-23 02:32:00,75.7,74.5,29.93,WSW,251,0.0,1.0,96,0.00,,,0.00,Wunderground v.1.15,2017-07-23 07:32:00,
2017-07-23 02:38:00,75.7,74.5,29.93,WSW,251,0.0,1.0,96,0.00,,,0.00,Wunderground v.1.15,2017-07-23 07:38:00,
2017-07-23 02:44:00,75.7,74.5,29.93,WSW,251,0.0,0.0,96,0.00,,,0.00,Wunderground v.1.15,2017-07-23 07:44:00,
2017-07-23 02:50:00,75.7,74.5,29.93,WSW,249,0.0,0.0,96,0.00,,,0.00,Wunderground v.1.15,2017-07-23 07:50:00,
2017-07-23 02:55:00,75.6,74.4,29.93,WSW,249,0.0,1.0,96,0.00,,,0.00,Wunderground v.1.15,2017-07-23 07:55:00,
2017-07-23 03:00:00,75.5,74.3,29.92,WSW,249,0.0,0.0,96,0.00,,,0.00,Wunderground v.1.15,2017-07-23 08:00:00,
2017-07-23 03:06:00,75.4,74.2,29.93,WSW,249,0.0,0.0,96,0.00,,,0.00,Wunderground v.1.15,2017-07-23 08:06:00,
2017-07-23 03:12:00,75.4,74.2,29.92,WSW,249,0.0,0.0,96,0.00,,,0.00,Wunderground v.1.15,2017-07-23 08:12:00,
2017-07-23 03:17:00,75.3,74.1,29.93,WSW,240,0.0,0.0,96,0.00,,,0.00,Wunderground v.1.15,2017-07-23 08:17:00,
2017-07-23 03:23:00,75.2,74.0,29.92,WSW,240,0.0,0.0,96,0.00,,,0.00,Wunderground v.1.15,2017-07-23 08:23:00,
2017-07-23 03:29:00,75.1,73.9,29.92,WSW,240,0.0,0.0,96,0.00,,,0.00,Wunderground v.1.15,2017-07-23 08:29:00,
2017-07-23 03:35:00,75.1,73.9,29.93,WSW,240,0.0,0.0,96,0.00,,,0.00,Wunderground v.1.15,2017-07-23 08:35:00,
2017-07-23 03:40:00,75.0,73.8,29.93,WSW,239,0.0,0.0,96,0.00,,,0.00,Wunderground v.1.15,2017-07-23 08:40:00,
2017-07-23 03:46:00,75.0,73.8,29.93,WSW,239,0.0,0.0,96,0.00,,,0.00,Wunderground v.1.15,2017-07-23 08:46:00,
2017-07-23 03:51:00,74.9,73.7,29.93,WSW,240,0.0,0.0,96,0.00,,,0.00,Wunderground v.1.15,2017-07-23 08:51:00,
2017-07-23 03:56:00,74.9,73.7,29.93,WSW,240,0.0,0.0,96,0.00,,,0.00,Wunderground v.1.15,2017-07-23 08:56:00,
2017-07-23 04:02:00,74.9,73.7,29.93,WSW,239,0.0,0.0,96,0.00,,,0.00,Wunderground v.1.15,2017-07-23 09:02:00,
2017-07-23 04:08:00,74.8,73.6,29.93,WSW,239,0.0,0.0,96,0.00,,,0.00,Wunderground v.1.15,2017-07-23 09:08:00,
2017-07-23 04:14:00,74.7,73.5,29.94,WSW,240,0.0,0.0,96,0.00,,,0.00,Wunderground v.1.15,2017-07-23 09:14:00,
2017-07-23 04:19:00,74.6,73.4,29.93,WSW,239,0.0,0.0,96,0.00,,,0.00,Wunderground v.1.15,2017-07-23 09:19:00,
2017-07-23 04:25:00,74.4,73.2,29.93,WSW,240,0.0,0.0,96,0.00,,,0.00,Wunderground v.1.15,2017-07-23 09:25:00,
2017-07-23 04:31:00,74.2,73.0,29.93,WSW,239,0.0,0.0,96,0.00,,,0.00,Wunderground v.1.15,2017-07-23 09:31:00,
2017-07-23 04:37:00,74.2,73.3,29.93,WSW,239,0.0,0.0,97,0.00,,,0.00,Wunderground v.1.15,2017-07-23 09:37:00,
2017-07-23 04:42:00,74.1,72.9,29.93,WSW,239,0.0,0.0,96,0.00,,,0.00,Wunderground v.1.15,2017-07-23 09:42:00,
2017-07-23 04:48:00,74.2,73.3,29.94,WSW,240,0.0,0.0,97,0.00,,,0.00,Wunderground v.1.15,2017-07-23 09:48:00,
2017-07-23 04:54:00,74.4,73.5,29.94,WSW,242,0.0,0.0,97,0.00,,,0.00,Wunderground v.1.15,2017-07-23 09:54:00,
2017-07-23 05:00:00,74.4,73.5,29.94,WSW,242,0.0,0.0,97,0.00,,,0.00,Wunderground v.1.15,2017-07-23 10:00:00,
2017-07-23 05:06:00,74.3,73.4,29.94,WSW,242,0.0,0.0,97,0.00,,,0.00,Wunderground v.1.15,2017-07-23 10:06:00,
2017-07-23 05:11:00,74.2,73.3,29.94,WSW,242,0.0,0.0,97,0.00,,,0.00,Wunderground v.1.15,2017-07-23 10:11:00,
2017-07-23 05:17:00,74.1,73.2,29.94,WSW,242,0.0,0.0,97,0.00,,,0.00,Wunderground v.1.15,2017-07-23 10:17:00,
2017-07-23 05:23:00,74.1,73.2,29.94,WSW,242,0.0,0.0,97,0.00,,,0.00,Wunderground v.1.15,2017-07-23 10:23:00,
2017-07-23 05:29:00,74.2,73.3,29.94,WSW,248,0.0,0.0,97,0.00,,,0.00,Wunderground v.1.15,2017-07-23 10:29:00,
2017-07-23 05:34:00,74.1,73.2,29.95,WSW,248,0.0,0.0,97,0.00,,,0.00,Wunderground v.1.15,2017-07-23 10:34:00,
2017-07-23 05:40:00,74.1,73.2,29.94,WSW,248,0.0,0.0,97,0.00,,,0.00,Wunderground v.1.15,2017-07-23 10:40:00,
2017-07-23 05:46:00,74.1,73.2,29.95,WSW,257,0.0,0.0,97,0.00,,,0.00,Wunderground v.1.15,2017-07-23 10:46:00,
2017-07-23 05:52:00,74.1,73.2,29.95,WSW,248,0.0,0.0,97,0.00,,,0.00,Wunderground v.1.15,2017-07-23 10:52:00,
2017-07-23 05:57:00,73.9,73.0,29.95,WSW,248,0.0,0.0,97,0.00,,,0.00,Wunderground v.1.15,2017-07-23 10:57:00,
2017-07-23 06:02:00,73.9,73.0,29.95,WSW,248,0.0,0.0,97,0.00,,,0.00,Wunderground v.1.15,2017-07-23 11:02:00,
2017-07-23 06:08:00,73.8,72.9,29.95,WSW,248,0.0,0.0,97,0.00,,,0.00,Wunderground v.1.15,2017-07-23 11:08:00,
2017-07-23 06:14:00,73.7,72.8,29.95,WSW,248,0.0,0.0,97,0.00,,,0.00,Wunderground v.1.15,2017-07-23 11:14:00,
2017-07-23 06:20:00,73.5,72.6,29.96,WSW,248,0.0,0.0,97,0.00,,,0.00,Wunderground v.1.15,2017-07-23 11:20:00,
2017-07-23 06:26:00,73.6,72.7,29.96,WSW,248,0.0,0.0,97,0.00,,,0.00,Wunderground v.1.15,2017-07-23 11:26:00,
2017-07-23 06:31:00,73.8,73.2,29.96,WSW,256,0.0,0.0,98,0.00,,,0.00,Wunderground v.1.15,2017-07-23 11:31:00,
2017-07-23 06:37:00,74.0,73.4,29.97,WSW,256,0.0,0.0,98,0.00,,,0.00,Wunderground v.1.15,2017-07-23 11:37:00,
2017-07-23 06:43:00,74.2,73.3,29.97,West,259,0.0,1.0,97,0.00,,,0.00,Wunderground v.1.15,2017-07-23 11:43:00,
2017-07-23 06:49:00,74.6,73.7,29.97,WSW,258,0.0,1.0,97,0.00,,,0.00,Wunderground v.1.15,2017-07-23 11:49:00,
2017-07-23 06:54:00,74.9,74.0,29.98,West,263,0.0,1.0,97,0.00,,,0.00,Wunderground v.1.15,2017-07-23 11:54:00,
2017-07-23 07:00:00,75.2,74.0,29.98,NNW,343,1.0,1.0,96,0.00,,,0.00,Wunderground v.1.15,2017-07-23 12:00:00,
2017-07-23 07:06:00,75.5,74.3,29.98,NNE,14,1.0,2.0,96,0.00,,,0.00,Wunderground v.1.15,2017-07-23 12:06:00,
2017-07-23 07:11:00,75.8,74.3,29.98,West,278,1.0,1.0,95,0.00,,,0.00,Wunderground v.1.15,2017-07-23 12:11:00,
2017-07-23 07:17:00,76.1,74.2,29.98,North,351,1.0,2.0,94,0.00,,,0.00,Wunderground v.1.15,2017-07-23 12:17:00,
2017-07-23 07:23:00,76.6,74.7,29.98,NNE,17,1.0,1.0,94,0.00,,,0.00,Wunderground v.1.15,2017-07-23 12:23:00,
2017-07-23 07:26:00,76.8,74.6,29.98,North,349,1.0,3.0,93,0.00,,,0.00,Wunderground v.1.15,2017-07-23 12:26:00,
2017-07-23 07:30:00,77.1,74.9,29.98,NW,306,1.0,2.0,93,0.00,,,0.00,Wunderground v.1.15,2017-07-23 12:30:00,
2017-07-23 07:36:00,77.4,74.6,29.98,WSW,249,1.0,2.0,91,0.00,,,0.00,Wunderground v.1.15,2017-07-23 12:36:00,
2017-07-23 07:42:00,77.9,75.1,29.99,West,276,1.0,1.0,91,0.00,,,0.00,Wunderground v.1.15,2017-07-23 12:42:00,
2017-07-23 07:47:00,78.2,75.0,29.99,North,350,1.0,3.0,90,0.00,,,0.00,Wunderground v.1.15,2017-07-23 12:47:00,
2017-07-23 07:53:00,78.4,75.2,29.99,NNW,335,2.0,2.0,90,0.00,,,0.00,Wunderground v.1.15,2017-07-23 12:53:00,
2017-07-23 07:59:00,78.6,75.4,29.99,NNW,340,1.0,2.0,90,0.00,,,0.00,Wunderground v.1.15,2017-07-23 12:59:00,
2017-07-23 08:05:00,78.9,75.4,29.98,NNW,335,1.0,3.0,89,0.00,,,0.00,Wunderground v.1.15,2017-07-23 13:05:00,
2017-07-23 08:11:00,79.3,75.8,29.98,NW,325,1.0,2.0,89,0.00,,,0.00,Wunderground v.1.15,2017-07-23 13:11:00,
2017-07-23 08:16:00,79.6,75.7,29.98,NNW,327,2.0,5.0,88,0.00,,,0.00,Wunderground v.1.15,2017-07-23 13:16:00,
2017-07-23 08:22:00,79.9,76.0,29.98,West,272,2.0,4.0,88,0.00,,,0.00,Wunderground v.1.15,2017-07-23 13:22:00,
2017-07-23 08:28:00,80.2,76.3,29.98,West,269,2.0,4.0,88,0.00,,,0.00,Wunderground v.1.15,2017-07-23 13:28:00,
2017-07-23 08:34:00,80.5,76.3,29.98,West,264,1.0,3.0,87,0.00,,,0.00,Wunderground v.1.15,2017-07-23 13:34:00,
2017-07-23 08:39:00,80.7,76.5,29.98,West,264,1.0,3.0,87,0.00,,,0.00,Wunderground v.1.15,2017-07-23 13:39:00,
2017-07-23 08:45:00,81.0,76.8,29.97,NW,313,2.0,4.0,87,0.00,,,0.00,Wunderground v.1.15,2017-07-23 13:45:00,
2017-07-23 08:51:00,81.5,77.3,29.97,NNW,346,2.0,2.0,87,0.00,,,0.00,Wunderground v.1.15,2017-07-23 13:51:00,
2017-07-23 08:57:00,82.3,77.3,29.97,WSW,247,1.0,2.0,85,0.00,,,0.00,Wunderground v.1.15,2017-07-23 13:57:00,
2017-07-23 09:03:00,82.7,77.4,29.97,NNW,336,2.0,3.0,84,0.00,,,0.00,Wunderground v.1.15,2017-07-23 14:03:00,
2017-07-23 09:09:00,82.4,76.7,29.97,West,276,2.0,4.0,83,0.00,,,0.00,Wunderground v.1.15,2017-07-23 14:09:00,
2017-07-23 09:15:00,82.2,76.5,29.97,West,271,2.0,3.0,83,0.00,,,0.00,Wunderground v.1.15,2017-07-23 14:15:00,
2017-07-23 09:20:00,82.0,76.7,29.96,NNW,339,2.0,2.0,84,0.00,,,0.00,Wunderground v.1.15,2017-07-23 14:20:00,
2017-07-23 09:26:00,82.4,77.1,29.97,NNW,342,2.0,3.0,84,0.00,,,0.00,Wunderground v.1.15,2017-07-23 14:26:00,
2017-07-23 09:32:00,82.3,76.3,29.97,NW,315,3.0,5.0,82,0.00,,,0.00,Wunderground v.1.15,2017-07-23 14:32:00,
2017-07-23 09:38:00,82.7,76.6,29.97,WNW,293,3.0,5.0,82,0.00,,,0.00,Wunderground v.1.15,2017-07-23 14:38:00,
2017-07-23 09:43:00,83.4,77.0,29.97,NE,35,3.0,8.0,81,0.00,,,0.00,Wunderground v.1.15,2017-07-23 14:43:00,
2017-07-23 09:49:00,84.1,77.6,29.97,West,264,3.0,8.0,81,0.00,,,0.00,Wunderground v.1.15,2017-07-23 14:49:00,
2017-07-23 09:55:00,84.5,77.3,29.97,West,267,3.0,4.0,79,0.00,,,0.00,Wunderground v.1.15,2017-07-23 14:55:00,
2017-07-23 10:00:00,84.5,76.9,29.97,West,265,2.0,3.0,78,0.00,,,0.00,Wunderground v.1.15,2017-07-23 15:00:00,
2017-07-23 10:06:00,84.5,77.3,29.97,West,260,2.0,4.0,79,0.00,,,0.00,Wunderground v.1.15,2017-07-23 15:06:00,
2017-07-23 10:11:00,84.9,77.3,29.97,NW,316,2.0,2.0,78,0.00,,,0.00,Wunderground v.1.15,2017-07-23 15:11:00,
2017-07-23 10:17:00,84.2,76.6,29.97,West,261,2.0,3.0,78,0.00,,,0.00,Wunderground v.1.15,2017-07-23 15:17:00,
2017-07-23 10:23:00,84.4,77.2,29.97,WSW,252,2.0,2.0,79,0.00,,,0.00,Wunderground v.1.15,2017-07-23 15:23:00,
2017-07-23 10:29:00,85.0,76.6,29.97,NNE,20,1.0,3.0,76,0.00,,,0.00,Wunderground v.1.15,2017-07-23 15:29:00,
2017-07-23 10:35:00,85.7,75.6,29.97,NE,35,2.0,6.0,72,0.00,,,0.00,Wunderground v.1.15,2017-07-23 15:35:00,
2017-07-23 10:40:00,86.1,76.8,29.97,NNE,17,2.0,2.0,74,0.00,,,0.00,Wunderground v.1.15,2017-07-23 15:40:00,
2017-07-23 10:46:00,86.8,75.4,29.97,ENE,57,1.0,4.0,69,0.00,,,0.00,Wunderground v.1.15,2017-07-23 15:46:00,
2017-07-23 10:52:00,87.0,77.3,29.96,West,265,2.0,2.0,73,0.00,,,0.00,Wunderground v.1.15,2017-07-23 15:52:00,
2017-07-23 10:58:00,86.9,75.5,29.97,NE,46,2.0,5.0,69,0.00,,,0.00,Wunderground v.1.15,2017-07-23 15:58:00,
2017-07-23 11:04:00,87.4,76.8,29.96,West,271,2.0,4.0,71,0.00,,,0.00,Wunderground v.1.15,2017-07-23 16:04:00,
2017-07-23 11:10:00,87.9,77.7,29.96,ENE,57,2.0,3.0,72,0.00,,,0.00,Wunderground v.1.15,2017-07-23 16:10:00,
2017-07-23 11:16:00,87.9,76.9,29.96,NW,308,2.0,3.0,70,0.00,,,0.00,Wunderground v.1.15,2017-07-23 16:16:00,
2017-07-23 11:23:00,88.2,76.3,29.96,West,271,2.0,6.0,68,0.00,,,0.00,Wunderground v.1.15,2017-07-23 16:23:00,
2017-07-23 11:29:00,87.3,75.4,29.96,WSW,257,2.0,6.0,68,0.00,,,0.00,Wunderground v.1.15,2017-07-23 16:29:00,
2017-07-23 11:35:00,87.0,75.6,29.96,WSW,246,1.0,2.0,69,0.00,,,0.00,Wunderground v.1.15,2017-07-23 16:35:00,
2017-07-23 11:41:00,87.8,76.4,29.96,NNW,341,1.0,1.0,69,0.00,,,0.00,Wunderground v.1.15,2017-07-23 16:41:00,
2017-07-23 11:46:00,88.5,76.6,29.95,WSW,256,1.0,2.0,68,0.00,,,0.00,Wunderground v.1.15,2017-07-23 16:46:00,
2017-07-23 11:52:00,88.1,75.8,29.95,WNW,292,1.0,2.0,67,0.00,,,0.00,Wunderground v.1.15,2017-07-23 16:52:00,
2017-07-23 11:58:00,87.7,75.4,29.96,WSW,252,1.0,2.0,67,0.00,,,0.00,Wunderground v.1.15,2017-07-23 16:58:00,
2017-07-23 12:04:00,87.4,76.4,29.96,West,268,1.0,1.0,70,0.00,,,0.00,Wunderground v.1.15,2017-07-23 17:04:00,
2017-07-23 12:10:00,87.4,78.9,29.95,West,266,1.0,1.0,76,0.00,,,0.00,Wunderground v.1.15,2017-07-23 17:10:00,
2017-07-23 12:16:00,88.1,79.6,29.95,West,281,1.0,2.0,76,0.00,,,0.00,Wunderground v.1.15,2017-07-23 17:16:00,
2017-07-23 12:21:00,88.2,77.6,29.95,West,273,1.0,2.0,71,0.00,,,0.00,Wunderground v.1.15,2017-07-23 17:21:00,
2017-07-23 12:27:00,88.8,79.8,29.95,SW,234,1.0,2.0,75,0.00,,,0.00,Wunderground v.1.15,2017-07-23 17:27:00,
2017-07-23 12:33:00,89.8,80.4,29.95,SW,236,1.0,1.0,74,0.00,,,0.00,Wunderground v.1.15,2017-07-23 17:33:00,
2017-07-23 12:39:00,89.2,78.6,29.95,WSW,240,1.0,2.0,71,0.00,,,0.00,Wunderground v.1.15,2017-07-23 17:39:00,
2017-07-23 12:44:00,87.4,77.3,29.95,SW,233,2.0,3.0,72,0.00,,,0.00,Wunderground v.1.15,2017-07-23 17:44:00,
2017-07-23 12:50:00,85.9,77.5,29.95,SSE,151,2.0,2.0,76,0.00,,,0.00,Wunderground v.1.15,2017-07-23 17:50:00,
2017-07-23 12:56:00,85.3,77.3,29.95,SW,215,1.0,2.0,77,0.00,,,0.00,Wunderground v.1.15,2017-07-23 17:56:00,
2017-07-23 13:02:00,84.8,77.6,29.95,SW,234,0.0,0.0,79,0.00,,,0.00,Wunderground v.1.15,2017-07-23 18:02:00,
2017-07-23 13:07:00,84.7,78.2,29.95,SSW,196,0.0,2.0,81,0.00,,,0.00,Wunderground v.1.15,2017-07-23 18:07:00,
2017-07-23 13:13:00,84.8,78.3,29.95,NW,304,0.0,1.0,81,0.00,,,0.00,Wunderground v.1.15,2017-07-23 18:13:00,
2017-07-23 13:19:00,85.0,78.5,29.95,WSW,249,0.0,1.0,81,0.00,,,0.00,Wunderground v.1.15,2017-07-23 18:19:00,
2017-07-23 13:25:00,85.1,78.6,29.95,SSW,211,0.0,1.0,81,0.00,,,0.00,Wunderground v.1.15,2017-07-23 18:25:00,
2017-07-23 13:31:00,85.4,78.1,29.95,WSW,254,0.0,1.0,79,0.00,,,0.00,Wunderground v.1.15,2017-07-23 18:31:00,
2017-07-23 13:36:00,85.0,77.8,29.94,WSW,240,0.0,1.0,79,0.00,,,0.00,Wunderground v.1.15,2017-07-23 18:36:00,
2017-07-23 13:42:00,84.8,77.2,29.95,SE,130,0.0,2.0,78,0.00,,,0.00,Wunderground v.1.15,2017-07-23 18:42:00,
2017-07-23 13:48:00,84.5,77.6,29.95,ENE,71,0.0,2.0,80,0.00,,,0.00,Wunderground v.1.15,2017-07-23 18:48:00,
2017-07-23 13:54:00,84.2,77.4,29.95,SE,128,0.0,1.0,80,0.00,,,0.00,Wunderground v.1.15,2017-07-23 18:54:00,
2017-07-23 14:00:00,84.4,77.6,29.95,SW,224,1.0,1.0,80,0.00,,,0.00,Wunderground v.1.15,2017-07-23 19:00:00,
2017-07-23 14:06:00,85.0,78.5,29.95,ENE,62,0.0,1.0,81,0.00,,,0.00,Wunderground v.1.15,2017-07-23 19:06:00,
2017-07-23 14:11:00,85.3,78.0,29.94,NW,315,0.0,0.0,79,0.00,,,0.00,Wunderground v.1.15,2017-07-23 19:11:00,
2017-07-23 14:17:00,86.1,79.2,29.94,North,9,1.0,1.0,80,0.00,,,0.00,Wunderground v.1.15,2017-07-23 19:17:00,
2017-07-23 14:22:00,86.1,77.2,29.94,SE,134,0.0,1.0,75,0.00,,,0.00,Wunderground v.1.15,2017-07-23 19:22:00,